User: anonymous
Location: UBC Liquid-Mirror Observatory
(49.2876°N, 122.5728°W)
Time: 13:57:10
(UTC-07:00)
Language:

KITSAT 1 - Orbit

View from above orbital plane
View from above orbital plane
View from above satellite
View from above satellite

Ground track
Ground track

The orbit data is extracted from the following two-line orbital elements,

1 22077U 92052B   14108.88252558 -.00000057  00000-0  19569-4 0  6436
2 22077 066.0857 226.4707 0012118 232.7879 213.6211 12.86491098 18778
Epoch (UTC): 18 April 2014 21:10:50
Eccentricity: 0.0012118
inclination: 66.0857°
perigee height: 1306 km
apogee height: 1325 km
right ascension of ascending node: 226.4707°
argument of perigee: 232.7879°
revolutions per day: 12.86491098
mean anomaly at epoch: 213.6211°
orbit number at epoch: 1877

The dashed part of the orbit path shows where the satellite is in the earth's shadow,  

DLR